Flag for China Weather past 2 weeks in Tsingtao, Shandong, China

Now
41 °F

Passing clouds.


Feels Like: 37 °F
Forecast: 34 / 43 °F
Wind: 6 mph from Southwest

Location: Qingdao Airport

Current Time: Mar 5, 2015 at 12:31:52 PM

Latest Report: Mar 5, 2015 at 12:00 PM


Visibility: N/A

Pressure: 30.39 "Hg

Humidity: 28%

Dew point: 10 °F

Location of TsingtaoLocation

Historic Weather in Tsingtao — Graph

°F

Tsingtao temperature yesterday

Maximum temperature yesterday: 43 °F (at 1:00 PM)
Minimum temperature yesterday: 23 °F (at 4:00 AM)
Average temperature yesterday: 33 °F

Past Weeks' High & Low Weather Summary

 TemperatureHumidityPressure
High55 °F (Feb 25, 12:00 PM)93% (Feb 21, 1:00 AM)30.51 "Hg (Feb 21, 1:00 AM)
Low21 °F (Feb 19, 4:00 AM)10% (Mar 1, 3:00 PM)29.83 "Hg (Mar 3, 4:00 AM)
Average38 °F51%30.21 "Hg
* Reported Feb 18 11:00 AM — Mar 5 11:00 AM, Tsingtao, Weather by CustomWeather, © 2015

Note: Actual official high and low records may vary slightly from our data, if they occured in-between our weather recording intervals... More about our weather records

Advertising

Tsingtao weather history for previous 24 hours

 ConditionsComfort  
Time TempWeatherWind HumidityBarometerVisibility
11:00 AM
Thu, Mar 5
41 °FPassing clouds.3 mph31%30.42 "HgN/A
10:00 AM39 °FSunny.3 mph28%30.45 "Hg10 mi
9:00 AM36 °FSunny.1 mph30%30.42 "Hg10 mi
8:00 AM32 °FPassing clouds.3 mph37%30.42 "HgN/A
7:00 AM28 °FSunny.3 mph43%30.39 "Hg10 mi
6:00 AM28 °FPassing clouds.6 mph40%30.39 "HgN/A
5:00 AM28 °FClear.6 mph43%30.39 "Hg10 mi
4:00 AM28 °FClear.3 mph40%30.42 "Hg10 mi
3:00 AM25 °FClear.6 mph46%30.42 "Hg10 mi
2:00 AM28 °FClear.3 mph40%30.45 "Hg10 mi
1:00 AM30 °FClear.6 mph37%30.42 "Hg10 mi
12:00 AM30 °FPassing clouds.6 mph37%30.42 "HgN/A
11:00 PM
Wed, Mar 4
32 °FClear.6 mph32%30.42 "Hg10 mi
10:00 PM34 °FPassing clouds.3 mph21%30.45 "HgN/A
9:00 PM34 °FClear.8 mph21%30.42 "Hg10 mi
8:00 PM34 °FClear.8 mph21%30.42 "Hg10 mi
7:00 PM34 °FClear.13 mph21%30.39 "Hg10 mi
6:00 PM36 °FClear.10 mph18%30.36 "Hg10 mi
5:00 PM39 °FSunny.13 mph17%30.33 "Hg10 mi
4:00 PM43 °FPassing clouds.13 mph16%30.33 "HgN/A
3:00 PM43 °FSunny.10 mph17%30.33 "Hg10 mi
2:00 PM43 °FPassing clouds.10 mph17%30.33 "HgN/A
1:00 PM43 °FPassing clouds.13 mph17%30.33 "HgN/A
12:00 PM41 °FPassing clouds.10 mph19%30.39 "HgN/A
Weather by CustomWeather, © 2015

See weather overviewHow to use our weather pages